Regional Weather Roundup
Issued by NWS

Home | Current Version | Previous Version | Text Only | Print | Product List | Glossary On
Versions: 1 2 3 4 5 6 7 8 9 10 11 12 13 14 15 16 17 18 19 20 21 22 23 24 25 26 27 28 29 30 31 32 33 34 35 36 37 38 39 40 41 42 43 44 45 46 47 48 49 50
000
ASUS43 KOAX 021010
RWRNE

WEATHER ROUNDUP FOR NEBRASKA
NATIONAL WEATHER SERVICE OMAHA NE
400 AM CST FRI DEC 02 2016

NOTES: SATELLITE DATA IS BEING USED TO AUGMENT CLOUD COVER ABOVE
       12000 FEET.
       "FAIR" INDICATES FEW OR NO CLOUDS BELOW 12,000 FEET WITH NO
       SIGNIFICANT WEATHER AND/OR OBSTRUCTIONS TO VISIBILITY.

  * THESE STATIONS DO NOT REPORT WEATHER SUCH AS RAIN...SNOW OR FOG.

NEZ001>004-019>022-054>056-021100-
NEBRASKA PANHANDLE

CITY           SKY/WX    TMP DP  RH WIND       PRES   REMARKS
SCOTTSBLUFF    PTCLDY    19  13  77 CALM      30.12R
ALLIANCE       CLEAR     12   8  84 SW3       30.09R
CHADRON        CLOUDY    27  21  78 W6        30.11R WCI  20
KIMBALL        CLEAR     20  18  91 NW5       30.09S WCI  14
SIDNEY         CLEAR     17  13  84 NW12      30.10R WCI   4
$$

NEZ057>060-069>072-079>082-021100-
SOUTHWEST NEBRASKA

CITY           SKY/WX    TMP DP  RH WIND       PRES   REMARKS
NORTH PLATTE   CLEAR     16  12  84 NW3       30.13R
IMPERIAL       CLEAR     20  11  68 NW3       30.12R
LEXINGTON      CLEAR     18  15  88 W7        30.13R WCI   9
MCCOOK         CLEAR     20  13  74 W10       30.13R WCI   9
OGALLALA       CLEAR     15  11  86 W7        30.12R WCI   5
$$

NEZ005>010-023>029-035>040-094-021100-
NORTH CENTRAL NEBRASKA

CITY           SKY/WX    TMP DP  RH WIND       PRES   REMARKS
VALENTINE      CLOUDY    21  18  88 W6        30.13R WCI  13
AINSWORTH      CLEAR     22  21  98 CALM      30.12S
BROKEN BOW     CLOUDY    26  24  92 CALM      30.13R
O`NEILL        PTCLDY    25  24  95 NW3       30.15S
ORD            CLOUDY    19  15  84 CALM      30.14R
THEDFORD       CLOUDY    28  24  84 CALM      30.12R
$$

NEZ041-046>049-061>064-073>077-083>087-021100-
SOUTH CENTRAL NEBRASKA

CITY           SKY/WX    TMP DP  RH WIND       PRES   REMARKS
GRAND ISLAND   CLEAR     20  18  92 CALM      30.14S
AURORA         CLEAR     19  18  96 N5        30.15S WCI  12
HASTINGS       CLEAR     19  16  88 NE5       30.14S WCI  12
HEBRON         CLEAR     19  17  93 CALM      30.15S
HOLDREGE       CLEAR     19  15  85 N3        30.11S
KEARNEY *      CLEAR     21  16  79 CALM      30.12F
YORK           CLEAR     21  19  93 N3        30.15S
$$

NEZ011>018-030>034-042>045-021100-
NORTHEAST NEBRASKA

CITY           SKY/WX    TMP DP  RH WIND       PRES   REMARKS
NORFOLK        CLOUDY    24  22  91 W7        30.15R WCI  16
ALBION         PTCLDY    23  20  89 NW3       30.15R
BLAIR          CLOUDY    32  29  88 W3        30.15R
FREMONT        MOCLDY    30  29  96 W3        30.17R
TEKAMAH        CLOUDY    32  28  85 W5        30.17R WCI  27
WAYNE          CLOUDY    32  30  92 NW5       30.15S WCI  27
$$

NEZ050>053-065>068-078-088>093-021100-
SOUTHEAST NEBRASKA

CITY           SKY/WX    TMP DP  RH WIND       PRES   REMARKS
LINCOLN        CLEAR     26  23  88 CALM      30.18R
OMAHA EPPLEY   CLOUDY    33  26  75 W5        30.17R WCI  29
BEATRICE       CLEAR     19  17  92 CALM      30.16S
FALLS CITY     CLEAR     23  21  92 NW5       30.16S WCI  17
NEBRASKA CITY  CLEAR     28  23  81 NW5       30.16S WCI  23
PLATTSMOUTH    CLOUDY    30  25  79 W5        30.16S WCI  25
$$

NEZ044-045-051>053-067-021100-
OMAHA AREA

CITY           SKY/WX    TMP DP  RH WIND       PRES   REMARKS
OMAHA EPPLEY   CLOUDY    33  26  75 W5        30.17R WCI  29
BLAIR          CLOUDY    32  29  88 W3        30.15R
FREMONT        MOCLDY    30  29  96 W3        30.17R
MILLARD        CLOUDY    33  28  82 NW3       30.17S
OFFUTT AFB     CLOUDY    30  30  99 NW3       30.16S
PLATTSMOUTH    CLOUDY    30  25  79 W5        30.16S WCI  25
WAHOO          FAIR      30  26  85 NW3       30.17R
$$



USA.gov is the U.S. government's official web portal to all federal, state and local government web resources and services.